Theta_e
340 340 345 349 355 354 356 354 348 347 348 344 343 347 349 350 345 345 343 344 344 346 348 349 350 350 350 350 350 351 351 351 350 351 351 351 351 351 351 351 348 349 350 351 351 351 352 351 351
336 340 348 351 357 358 362 350 350 346 345 344 346 348 351 353 349 347 347 346 346 348 348 349 349 350 350 350 351 350 351 351 351 351 351 351 352 352 350 351 349 348 351 352 352 351 351 350 348
338 350 352 355 358 358 359 349 348 347 344 346 349 348 351 351 348 347 347 348 348 349 349 349 348 348 349 350 350 351 351 351 350 351 352 351 353 352 350 351 352 350 351 351 352 351 350 350 349
347 350 353 358 362 357 357 347 345 348 347 347 349 352 348 348 348 349 347 348 348 348 348 350 350 349 351 351 351 351 351 352 352 351 352 352 353 353 351 352 352 351 351 351 352 350 349 350 347
342 354 358 359 359 356 353 347 346 350 350 349 347 352 350 347 348 348 349 348 347 348 347 350 349 348 349 349 351 352 349 350 351 350 350 352 351 350 352 353 352 350 349 348 347 344 345 348 346
354 355 359 360 357 356 355 346 349 352 350 350 351 352 351 348 348 350 348 348 346 348 350 350 348 349 349 350 347 349 350 350 349 350 352 352 353 352 352 350 349 349 347 346 344 343 343 345 346
355 358 360 357 360 359 357 350 350 352 350 350 348 354 350 348 349 349 345 344 344 347 349 348 350 351 350 351 347 349 352 352 350 349 350 352 353 352 352 351 350 347 345 341 343 343 342 341 345
354 357 357 355 360 360 355 352 350 350 351 347 347 354 353 346 347 347 347 348 349 345 340 342 349 350 350 350 352 351 352 351 349 350 352 353 352 352 349 348 350 349 343 338 340 340 340 342 346
353 360 358 356 357 356 353 350 349 346 350 348 347 349 347 345 344 345 345 344 346 347 349 346 347 349 351 350 352 348 351 351 348 347 344 346 346 345 342 343 344 338 338 337 339 340 340 341 340
350 356 357 353 352 354 355 353 347 350 350 351 350 347 345 344 345 348 348 348 347 350 349 348 343 347 350 350 350 351 350 349 341 341 342 343 344 344 344 345 345 343 337 336 336 336 337 341 345
353 359 353 352 349 353 354 351 345 348 354 350 351 348 345 344 346 347 348 348 346 343 348 345 346 346 349 349 347 347 345 343 341 343 344 345 343 343 344 344 345 343 345 347 346 346 344 344 345
358 358 353 356 349 351 357 352 347 346 351 347 348 346 345 345 344 346 346 347 348 344 345 347 346 347 347 345 344 341 342 345 347 348 347 342 342 341 340 343 345 346 346 346 346 344 345 345 344
357 357 353 355 354 353 354 355 351 351 348 347 347 347 346 345 343 344 345 347 348 347 348 348 346 344 342 342 344 347 348 348 348 348 346 344 341 342 343 344 343 342 346 346 345 345 345 342 340
356 355 352 352 354 354 356 355 354 346 348 349 348 348 347 345 344 343 345 346 347 347 347 348 347 343 343 345 346 347 347 348 348 346 345 344 340 343 345 342 341 344 348 346 344 345 344 344 341
350 356 354 352 352 355 353 357 356 350 348 349 348 348 347 346 345 344 345 346 346 347 347 347 346 346 345 343 345 346 346 347 347 346 345 345 346 341 344 342 343 346 347 344 342 343 344 344 344
356 354 357 353 354 353 351 354 354 349 349 349 348 347 346 346 345 344 345 345 345 346 347 346 346 346 346 346 346 343 345 345 346 346 345 344 343 340 344 346 346 347 348 347 344 344 344 344 344
347 358 358 357 353 353 354 354 354 351 347 348 347 345 345 346 345 345 344 345 346 346 347 347 347 347 345 345 347 344 345 345 345 347 346 345 347 342 345 343 348 346 349 350 350 347 344 342 344
347 354 357 358 354 352 352 355 353 351 351 343 345 346 346 346 345 345 344 344 345 346 348 347 347 345 345 345 345 346 346 342 344 346 345 346 345 344 343 345 346 349 350 350 352 352 345 342 344
339 350 356 357 354 353 353 354 351 351 349 343 339 345 346 346 344 345 345 345 347 347 348 348 347 344 345 345 346 345 345 342 344 346 347 346 343 341 341 344 345 348 348 351 352 348 343 345 345
325 340 355 353 351 352 352 355 353 351 350 345 337 345 346 345 345 345 345 346 346 344 346 346 345 343 346 344 347 344 344 344 345 347 347 346 344 343 347 343 343 347 348 350 351 349 345 351 350
333 351 354 355 347 350 353 353 355 351 349 346 344 343 345 346 345 344 344 345 345 344 345 347 343 343 346 346 346 346 346 345 346 346 348 347 346 347 348 348 346 346 349 350 350 352 352 346 339
332 350 346 346 349 358 351 354 352 352 350 346 343 341 343 345 344 343 344 345 345 345 347 347 342 344 347 345 345 346 347 347 347 347 347 347 348 348 348 349 348 347 348 350 351 351 351 351 344
347 347 347 350 355 355 356 355 350 351 352 348 343 342 340 345 345 344 344 345 346 346 347 348 343 345 346 346 344 345 346 344 345 347 346 348 347 349 349 349 348 346 343 349 350 351 350 349 349
347 347 351 350 352 356 351 355 356 354 350 347 341 342 341 344 344 344 344 345 346 347 347 347 345 345 344 344 344 345 345 345 346 346 348 345 347 346 348 348 348 346 344 348 350 349 350 351 349
335 336 349 350 355 356 351 356 352 347 344 344 343 341 341 341 344 344 344 344 346 347 348 347 346 346 345 342 343 345 346 346 346 347 347 347 346 347 347 348 349 348 345 349 350 349 351 350 351
337 336 345 353 354 356 352 357 348 343 342 342 343 340 342 339 344 345 345 345 345 347 348 347 347 346 346 345 342 345 346 346 346 346 345 347 347 347 347 347 349 349 348 347 350 349 350 350 350
341 341 337 349 349 353 353 349 347 345 346 347 342 341 344 341 346 346 346 346 345 346 348 348 347 347 346 346 346 343 346 346 348 348 347 347 347 348 349 347 347 350 349 348 348 349 350 349 351
331 330 339 338 352 352 355 347 345 352 356 350 347 341 342 343 344 345 346 347 347 345 347 349 346 347 346 345 348 347 345 346 347 348 347 348 349 349 350 349 348 350 350 350 349 351 350 350 351
321 323 323 329 337 349 356 350 343 344 353 350 345 342 341 343 341 342 344 348 349 348 349 350 350 348 346 347 347 348 345 347 348 346 346 346 348 349 348 349 348 349 350 350 351 350 350 351 350
321 323 321 324 327 336 343 335 348 349 349 347 345 340 340 344 342 342 342 344 347 350 351 351 351 350 347 346 349 348 347 349 349 350 350 349 351 351 350 350 350 350 350 351 350 349 351 349 349
Wind_Speed
2 2 2 2 2 4 2 3 3 9 9 7 16 5 6 5 2 4 19 15 21 19 16 15 14 14 14 15 17 15 16 16 16 16 15 15 15 14 14 13 14 14 15 16 17 17 16 15 15
2 3 2 2 4 4 3 3 11 5 4 18 8 8 7 4 5 12 14 24 23 21 18 16 15 15 15 15 16 16 16 16 16 16 15 14 13 13 13 13 12 13 14 14 17 16 14 13 14
2 5 2 3 3 2 3 0 12 11 8 10 5 8 5 4 11 15 22 27 24 21 19 17 15 15 15 15 16 16 16 16 15 17 15 13 13 12 12 11 11 13 12 12 16 15 14 15 17
4 6 3 3 5 4 3 5 3 9 8 7 15 11 5 13 9 13 30 28 25 21 19 17 16 13 14 14 15 15 16 15 15 15 14 13 11 10 10 10 10 11 10 11 13 14 13 13 13
3 0 3 4 3 5 4 8 5 5 4 9 7 7 4 4 18 31 29 28 28 23 19 16 16 15 14 15 14 15 15 15 15 14 12 11 10 11 9 9 9 9 9 10 13 13 13 12 11
3 1 3 3 1 4 4 5 11 13 13 13 11 9 4 25 28 25 30 28 25 25 20 17 15 16 15 14 14 15 14 13 14 12 11 12 11 11 9 9 8 8 8 9 11 12 12 12 13
0 2 2 3 3 3 3 2 4 14 14 8 9 6 6 16 23 26 29 27 25 22 20 18 15 14 14 14 13 14 14 13 12 12 12 11 10 9 9 9 8 8 8 9 9 9 9 9 7
2 3 2 1 2 2 7 3 7 13 6 13 11 6 10 9 25 28 27 25 22 20 18 17 17 15 14 13 13 13 14 13 12 12 12 12 10 9 9 10 9 8 9 10 10 8 7 8 6
1 3 3 3 5 2 10 5 4 5 15 6 1 11 17 26 28 24 23 21 19 18 17 16 17 17 16 14 13 13 13 13 12 11 12 12 11 10 10 11 11 10 9 8 7 6 6 5 5
3 3 3 4 6 5 11 5 9 8 9 14 18 15 27 29 26 22 20 19 21 20 18 17 17 17 17 16 15 15 14 13 12 12 11 12 11 10 10 12 9 8 8 6 4 3 3 0 3
4 3 9 10 15 3 6 5 6 18 10 19 22 20 22 25 20 19 17 24 26 22 19 17 17 17 17 16 16 15 15 14 12 11 9 9 8 8 5 4 5 4 3 1 1 2 1 2 1
3 2 15 10 14 6 8 4 11 13 7 19 21 25 23 17 17 18 19 21 26 24 20 18 16 17 14 16 16 17 17 14 12 10 9 8 6 4 4 5 4 4 5 5 3 3 3 3 6
2 5 6 4 7 9 11 11 10 11 17 18 21 21 18 16 19 19 20 23 25 25 21 19 17 16 15 16 17 15 13 11 10 9 8 9 5 2 2 3 4 5 9 8 7 5 6 7 5
3 9 6 5 2 5 12 10 4 8 17 18 21 19 17 17 19 18 20 22 25 24 23 21 18 17 19 16 14 13 11 11 10 10 9 7 3 4 1 4 6 9 9 7 6 7 6 8 8
5 5 2 8 6 4 4 12 2 8 21 20 20 16 13 15 18 21 25 28 27 25 24 23 19 17 18 16 15 13 12 10 11 10 9 8 5 5 0 2 4 5 7 5 4 5 4 7 7
3 2 2 3 5 3 1 2 4 13 19 19 18 15 13 15 23 23 25 27 26 27 25 22 20 18 17 17 14 14 11 11 11 9 9 7 7 3 8 6 6 7 8 3 2 0 2 3 3
5 2 3 3 3 3 2 5 8 8 11 17 17 17 15 13 16 18 23 29 31 28 27 22 22 18 13 11 21 18 12 13 11 10 13 10 7 8 5 5 5 6 9 12 11 8 4 3 2
4 2 1 1 4 2 1 5 6 14 6 16 19 18 15 15 17 25 25 30 30 29 28 24 24 20 16 11 14 19 17 14 12 10 13 10 6 6 5 3 5 6 7 10 9 6 5 5 2
3 3 3 4 8 3 2 2 4 8 4 8 11 15 15 18 20 23 24 26 30 30 29 26 25 21 18 15 17 19 18 14 14 11 9 10 7 6 5 2 4 6 9 10 12 7 10 5 5
2 0 5 6 5 3 1 4 2 3 4 1 10 17 17 15 14 18 22 24 31 34 31 26 28 23 17 18 17 19 17 17 14 11 10 9 8 5 5 3 3 4 7 9 13 11 5 3 2
4 4 8 6 3 4 3 1 4 4 2 3 2 18 17 19 17 15 21 25 28 30 32 27 27 26 19 18 15 19 17 17 14 12 11 8 7 5 3 3 3 3 6 8 12 10 8 3 8
6 4 8 11 10 3 2 3 6 9 6 5 6 7 16 15 17 16 21 22 27 32 32 28 29 26 22 20 18 19 18 18 18 17 12 10 8 7 5 4 2 2 4 6 9 8 8 6 2
2 8 7 5 5 3 2 1 5 13 14 11 8 8 11 17 17 19 25 28 29 31 33 32 29 27 23 21 20 20 19 20 20 17 13 12 10 9 8 6 3 1 2 3 4 5 6 9 6
18 17 12 6 3 2 5 6 3 6 22 15 5 8 9 17 16 20 27 25 24 27 27 34 30 28 24 22 20 22 20 19 18 17 16 15 13 12 10 9 5 3 3 3 3 2 3 5 6
6 5 3 5 3 3 3 4 7 6 10 20 13 11 11 17 18 15 16 22 22 26 29 33 32 29 25 24 23 22 21 21 18 19 19 16 15 15 13 11 10 6 6 4 3 1 1 1 3
9 5 5 6 5 4 3 3 5 4 4 18 19 17 14 17 18 18 22 25 26 28 29 31 34 31 27 24 25 23 22 21 18 18 21 19 17 17 15 15 13 11 8 9 5 4 1 1 2
6 4 4 6 3 2 2 5 9 12 15 11 21 14 19 19 20 19 23 26 28 29 30 34 33 31 28 26 24 24 22 21 17 14 19 20 17 16 17 16 15 14 10 9 9 6 5 4 3
6 7 3 2 5 4 2 0 8 7 8 7 17 22 20 20 20 19 21 26 28 31 32 33 34 34 31 27 24 23 24 21 17 16 13 16 15 15 14 18 18 16 14 12 12 9 6 5 5
3 1 5 4 4 4 4 5 11 4 8 7 9 14 17 20 19 17 21 27 30 28 30 31 32 32 30 30 28 25 25 21 18 16 17 17 15 15 16 17 19 18 15 13 13 12 9 9 7
1 4 3 4 4 2 3 5 6 11 8 7 4 6 8 13 17 15 21 22 23 27 28 31 32 32 31 30 28 26 25 22 20 16 15 17 16 13 13 13 18 17 15 14 14 14 12 13 13
Wind_Direction
229 250 322 163 67 64 57 352 112 118 138 148 157 129 107 63 138 168 148 156 153 147 144 139 137 133 130 128 125 124 123 125 121 121 115 115 113 112 110 105 106 107 110 109 107 102 99 102 105
285 260 209 251 72 55 30 353 123 105 137 113 85 91 49 62 53 113 122 153 152 145 143 140 136 133 132 130 129 125 127 126 120 120 120 115 112 111 111 109 106 104 103 106 97 96 93 98 100
325 3 60 45 55 81 128 93 118 117 125 111 109 52 77 90 110 133 147 152 148 145 146 137 133 129 132 131 133 129 128 128 126 125 124 120 116 109 108 107 100 102 100 102 101 99 93 91 94
6 9 32 61 12 38 354 137 121 108 70 57 109 80 82 122 123 146 148 151 147 146 144 137 129 126 127 132 133 127 132 127 128 125 122 116 113 105 99 99 94 98 101 108 105 96 93 93 89
18 208 63 66 10 317 347 121 143 73 72 100 117 98 66 85 139 141 149 151 146 145 142 141 136 132 130 135 134 130 129 132 132 128 117 116 119 113 108 109 100 105 103 115 106 98 92 83 100
4 353 69 112 115 281 300 186 115 99 103 102 91 101 64 129 134 149 153 152 150 146 146 143 145 136 133 135 138 133 135 127 122 123 126 125 116 115 104 103 99 101 106 115 112 106 95 92 99
2 58 41 117 40 72 289 154 118 118 115 92 123 96 115 140 145 152 155 154 153 152 152 152 143 139 135 132 138 136 138 132 127 131 129 118 111 107 104 99 89 88 102 115 113 112 91 85 103
244 114 88 135 103 109 278 329 118 120 93 104 133 145 153 151 151 152 151 151 153 154 153 152 148 146 138 133 135 139 139 139 141 134 124 116 107 96 90 92 81 78 95 118 131 129 114 106 100
95 78 156 182 139 195 282 144 131 85 123 125 94 137 137 142 146 140 144 147 153 157 158 154 157 150 143 141 136 137 141 148 145 133 118 120 111 107 98 84 82 82 90 114 122 110 95 87 57
154 114 148 256 181 200 214 217 127 125 129 110 108 117 136 144 148 149 151 151 162 165 164 162 158 155 149 151 150 144 152 153 150 133 132 118 112 104 94 86 77 85 97 107 117 123 99 38 7
175 186 147 228 244 163 233 130 135 145 136 148 145 145 147 152 159 154 158 162 168 166 166 167 163 158 159 159 155 153 157 152 145 137 129 123 121 120 94 71 83 76 80 163 233 271 314 329 293
133 88 175 196 216 186 235 134 167 165 166 151 148 153 153 158 158 159 166 172 163 166 168 165 166 162 164 161 159 151 151 152 150 149 141 140 143 125 105 50 48 44 47 22 8 348 344 69 201
124 108 72 152 203 204 198 180 186 202 147 151 145 152 158 159 168 168 169 170 168 169 171 167 162 164 162 160 161 162 165 167 167 169 165 166 168 177 330 4 25 72 45 22 18 20 75 94 136
124 98 113 75 100 171 172 129 237 160 145 151 153 165 165 165 163 153 162 169 177 176 175 170 170 162 163 166 175 178 177 173 170 164 165 178 207 212 105 45 81 27 24 25 52 55 70 111 131
123 104 78 22 6 76 350 155 94 152 155 159 163 170 165 166 159 168 174 174 178 180 174 175 173 175 175 173 176 182 182 183 174 172 171 203 219 185 93 84 80 25 18 52 59 54 80 107 114
79 85 90 339 351 26 279 104 245 169 161 165 166 169 157 174 176 177 177 178 185 182 177 175 179 176 187 193 190 190 185 181 179 181 184 172 171 156 117 100 89 43 53 57 88 344 125 41 41
17 74 59 106 329 74 321 161 211 290 186 171 173 173 173 163 179 183 174 182 182 182 175 172 170 170 170 182 196 193 195 184 173 170 164 156 153 136 116 108 55 72 72 80 74 72 150 108 26
169 157 107 61 211 151 162 141 167 231 233 176 180 174 169 170 185 184 176 185 189 188 180 172 171 161 155 155 180 195 196 191 181 170 166 168 169 160 150 120 69 75 76 70 55 71 130 180 261
140 114 87 6 12 358 81 137 144 230 251 165 151 161 170 179 182 180 177 184 189 188 183 180 178 167 161 167 173 188 193 196 188 193 183 177 166 138 173 163 114 91 77 62 54 84 130 112 316
103 7 126 63 311 347 61 216 107 210 251 352 151 169 173 170 174 170 176 182 187 187 189 189 183 172 167 173 180 186 195 194 195 194 195 185 164 163 164 167 139 78 80 72 66 83 113 50 36
0 263 164 131 133 227 210 257 220 233 286 240 180 179 170 173 173 177 178 184 185 191 189 186 181 174 169 167 169 179 184 196 197 192 187 175 170 185 194 154 158 87 78 74 65 60 56 148 61
224 174 134 137 115 263 24 272 207 217 216 209 198 172 177 186 176 172 179 181 188 194 190 186 183 182 177 174 170 176 189 188 201 194 187 185 191 194 220 202 169 107 87 89 74 59 60 53 162
202 160 148 114 71 189 176 24 267 178 231 228 203 201 179 179 180 180 182 185 189 193 195 192 188 185 186 185 181 181 187 193 201 198 205 201 205 199 198 216 248 236 130 115 99 70 60 61 63
132 92 67 57 47 273 205 184 266 192 208 222 172 187 177 180 186 190 184 179 180 191 189 192 191 190 192 197 192 190 183 186 190 205 213 212 211 208 207 216 230 226 198 173 191 107 69 63 61
80 80 101 49 14 258 328 169 262 224 220 210 191 187 185 182 181 178 177 175 177 184 189 193 194 196 196 197 198 194 192 191 199 205 216 222 218 217 219 222 223 228 219 208 216 152 131 38 51
186 163 152 158 182 230 85 263 265 181 215 204 211 192 173 176 185 181 181 177 180 184 190 191 198 201 200 198 196 198 195 203 208 216 220 223 226 225 232 232 229 225 223 223 219 211 222 328 204
212 198 168 99 2 123 282 285 277 240 234 211 216 196 177 177 181 184 182 180 181 184 190 196 201 206 205 206 203 200 204 201 211 219 217 226 230 231 240 234 231 226 235 227 223 221 224 232 247
177 158 98 33 151 152 246 89 256 229 211 227 197 199 186 172 175 182 181 183 186 187 190 196 207 207 207 208 209 207 202 206 211 219 221 212 226 237 244 236 229 227 233 237 230 227 236 243 235
312 223 56 121 140 156 168 240 231 191 201 193 207 201 184 174 167 175 181 186 187 183 187 191 201 206 209 211 209 214 208 207 212 215 215 219 226 242 258 227 222 227 235 243 231 228 227 235 247
210 119 131 140 217 201 154 274 15 84 84 88 66 168 189 185 165 166 172 180 178 181 184 191 200 206 209 211 213 214 215 211 207 210 220 215 221 232 236 216 214 223 235 236 240 228 237 250 245